Regional Weather Roundup
Issued by NWS

Home | Current Version | Previous Version | Text Only | Print | Product List | Glossary Off
Versions: 1 2 3 4 5 6 7 8 9 10 11 12 13 14 15 16 17 18 19 20 21 22 23 24 25 26 27 28

000
ASUS45 KSLC 280210
RWRUT

UTAH REGIONAL WEATHER ROUNDUP
NATIONAL WEATHER SERVICE SALT LAKE CITY UT
800 PM MDT TUE SEP 27 2016

UTZ001>011-023>025-280300-

NORTHERN UTAH

CITY           SKY/WX    TMP DP  RH WIND       PRES   REMARKS
BRIGHAM CITY     N/A     66  52  61 CALM      30.13S
HILL AFB       CLEAR     68  50  52 NW3       30.15R
LOGAN          CLEAR     66  49  54 E3        30.14R
OGDEN          CLEAR     65  47  52 N5        30.13R
PROVO AIRPORT  CLEAR     67  50  54 NW14      30.13R
SALT LAKE CITY CLEAR     68  50  52 W6        30.13R
VERNAL         CLEAR     59  50  72 W8        30.17S
WENDOVER       CLEAR     68  45  42 CALM      30.15
HEBER CITY     CLEAR     64  41  42 SW6       30.17R
WEST JORDAN    CLEAR     65  49  54 W5        30.15S

$$

UTZ012>022-026-027-280300-

SOUTHERN/CENTRAL UTAH

CITY           SKY/WX    TMP DP  RH WIND       PRES   REMARKS
BLANDING       PTCLDY    67  31  26 S5        30.28R
BRYCE CANYON   CLEAR     54  35  48 SE5       30.32R
CEDAR CITY     CLEAR     69  32  25 S10       30.16R
DELTA          CLEAR     68  37  32 NW5       30.13R
MILFORD        CLEAR     70  34  26 NE8       30.12R
MOAB/CYNLANDS  CLEAR     70  36  28 W6        30.11R
PRICE          CLEAR     61  41  47 N9        30.21R
ST GEORGE      CLEAR     81  43  26 E12       30.01S

$$

REGIONAL REPORTS     COLORADO/ARIZONA

CITY           SKY/WX    TMP DP  RH WIND       PRES   REMARKS
CRAIG, CO      CLEAR     55  39  54 CALM      30.24R
GRAND JUNCTION CLEAR     70  35  27 N8        30.12R
RIFLE          CLEAR     68  36  30 NW7       30.15R
MONTROSE       CLEAR     62  39  42 CALM      30.20R
CORTEZ         CLEAR     58  38  47 CALM      30.22R
PAGE, AZ       CLOUDY    74  35  24 SW7       30.09S
GRAND CANYON   PTCLDY    60  39  45 E7        30.24S
KINGMAN        PTCLDY    74  48  39 SE9       30.03R
FLAGSTAFF      TSTM      59  43  55 E21G29    30.24R

$$

REGIONAL REPORTS    NEVADA/IDAHO/WYOMING

CITY           SKY/WX    TMP DP  RH WIND       PRES   REMARKS
LAS VEGAS, NV  CLOUDY    86  39  19 S3        29.94S
ELY            CLEAR     64  29  26 NE3       30.18R
ELKO           CLEAR     72  36  26 E6        30.10S
POCATELLO, ID  CLEAR     65  48  54 CALM      30.13R
BURLEY         CLEAR     66  48  52 NE6       30.08R
EVANSTON, WY   CLEAR     62  36  37 W8        30.28R
ROCK SPRINGS   CLEAR     63  33  32 E3        30.26R

$$




USA.gov is the U.S. government's official web portal to all federal, state and local government web resources and services.